SCP
0 0 0 0 0 0 0 0 0 0 0 0 0 0 0 0 0 0 0 0 -0 0 -0 -1 -0 -0 -0 -1 -1 -1 -1 -1 -0 -0 -0 -0 -0 -0 -0 -0 -0 -0 -0 -0 -0 -0 -0 -0 0
0 0 0 0 0 0 0 0 0 0 0 0 0 0 0 0 0 0 -0 -0 -0 0 0 -0 -0 -0 -0 -0 -1 -1 -1 -1 -0 -0 -0 -0 -0 -0 -0 -0 -0 -0 -0 -0 -0 -0 -0 -0 0
0 0 0 0 0 0 0 0 0 0 0 0 0 0 0 0 0 0 0 0 0 0 0 0 0 -0 -1 -1 -1 -1 -1 -1 -0 -0 -0 -0 -0 -0 -0 -0 -0 -0 -0 -0 -0 -0 -0 -0 0
0 0 0 0 0 0 0 0 0 0 0 0 0 0 0 0 0 0 0 0 0 0 0 1 1 1 -0 -1 -1 -1 -1 -1 -0 -0 -0 -0 -0 -0 -0 -0 -0 -0 -0 -0 -0 -0 -0 -0 0
0 0 0 0 0 0 0 0 0 0 0 0 0 0 0 0 0 0 0 0 0 0 0 1 1 1 1 0 -0 -0 -0 -0 -0 -0 -0 -0 -0 -0 -0 -0 -0 -0 -0 -0 -0 -0 -0 -0 0
0 0 0 0 0 0 0 0 0 0 0 0 0 0 0 0 0 0 0 0 0 0 0 1 1 1 1 0 0 0 0 -0 -0 -0 -0 -0 -0 -0 -0 -0 -0 -0 -0 -0 -0 -0 -0 -0 0
-0 0 0 0 0 0 0 0 0 0 0 0 0 0 0 0 0 0 0 0 0 0 0 1 1 1 1 1 0 0 0 0 0 0 -0 -0 -0 -0 -0 -0 -0 -0 -0 -0 -0 -0 -0 0 0
0 0 0 0 0 0 0 0 0 0 0 0 0 0 0 0 0 0 0 0 0 0 1 1 1 0 0 1 1 1 1 1 1 0 0 0 0 0 0 0 0 0 0 -0 -0 -0 -0 0 0
0 0 0 0 0 0 0 0 0 0 0 0 0 0 0 0 0 0 0 0 0 1 1 1 1 0 0 0 1 1 1 1 1 1 0 0 0 0 0 0 0 0 0 0 0 -0 0 0 0
0 0 0 0 0 0 0 0 0 0 0 0 0 0 0 0 0 0 0 0 0 0 1 1 1 1 0 0 0 0 0 0 0 0 0 0 0 0 0 0 0 0 0 0 0 0 0 0 0
0 0 0 0 0 0 0 0 0 0 0 0 0 0 0 0 0 0 0 0 0 0 0 1 2 1 1 0 0 0 0 0 0 0 0 0 0 0 0 0 0 0 0 0 0 0 0 0 0
0 0 0 0 0 0 0 0 0 0 0 0 0 0 0 0 0 0 0 0 0 0 0 0 2 2 2 1 0 0 0 0 0 0 0 0 0 0 0 0 0 0 0 0 0 0 0 0 0
0 0 0 0 0 0 0 0 0 0 0 0 0 0 -0 0 0 0 0 0 0 0 0 0 1 3 4 2 1 1 0 0 0 0 0 0 0 0 0 0 0 0 0 0 0 0 0 0 0
0 0 0 0 0 0 0 0 0 0 0 0 0 0 0 -0 0 0 0 0 0 0 0 0 1 3 3 3 3 1 1 1 0 0 0 0 0 0 0 0 0 0 0 0 0 0 0 0 0
0 0 0 0 0 0 0 0 0 0 0 0 0 0 0 0 -0 -0 0 0 0 0 0 0 0 2 4 4 3 3 2 1 1 0 0 0 0 0 0 0 0 0 0 0 0 0 0 0 0
0 0 0 0 0 0 0 0 0 0 0 0 0 0 0 0 0 -0 0 0 0 0 0 0 0 1 3 5 4 3 2 1 1 1 1 0 0 0 0 0 0 0 0 0 0 0 0 0 0
0 0 0 0 0 0 0 0 0 0 0 0 0 0 0 0 0 -0 0 0 0 0 0 0 0 0 2 4 6 4 4 2 2 1 1 1 0 0 0 0 0 0 0 0 0 0 0 0 0
0 0 0 0 0 0 0 0 0 0 0 0 0 0 0 0 0 0 0 0 0 0 0 0 0 0 2 3 5 5 5 3 2 1 1 1 1 0 0 0 0 0 0 0 0 0 0 0 0
0 0 0 0 0 0 0 0 0 0 0 0 0 0 0 0 0 0 0 0 0 0 0 0 0 0 0 6 3 6 5 5 2 2 2 1 1 1 1 0 0 0 0 0 0 0 0 0 0
0 0 0 0 0 0 0 0 0 0 0 0 0 0 0 0 0 0 0 0 0 0 0 0 0 0 0 4 6 6 5 5 2 2 3 3 1 1 1 1 0 0 0 0 0 0 0 0 0
0 0 0 0 0 0 0 0 0 0 0 0 0 0 0 0 0 0 0 0 0 0 0 0 0 0 0 2 4 6 5 4 4 3 2 2 2 1 1 1 1 1 0 0 0 0 1 0 0
0 0 0 0 0 0 0 0 0 0 0 0 0 0 0 0 0 0 0 0 0 0 0 0 0 0 0 1 3 3 6 6 6 4 2 2 2 1 1 1 1 1 0 0 1 1 1 1 0
0 0 0 0 0 0 0 0 0 0 0 0 0 0 0 0 0 0 0 0 0 -0 0 0 0 0 0 2 3 4 4 5 4 5 4 3 4 1 1 2 2 2 1 0 1 1 1 0 0
0 0 0 0 0 0 0 0 0 0 0 0 0 0 0 0 0 -0 0 0 0 0 0 0 0 0 0 4 2 3 3 4 4 4 4 2 2 2 2 1 3 2 1 1 2 2 1 1 1
0 0 0 0 0 0 0 0 0 0 0 0 0 0 0 0 0 0 0 0 0 -0 0 0 0 0 0 0 2 2 3 4 5 5 2 2 2 2 2 2 3 2 1 2 2 3 2 1 1
0 0 0 0 0 0 0 0 0 0 0 0 0 0 0 0 0 0 -0 0 0 -0 -0 0 0 0 0 0 0 3 2 4 7 5 3 2 2 2 5 3 3 2 1 1 2 1 1 1 1
0 0 0 0 0 0 0 0 0 0 0 0 0 0 0 0 0 -0 -0 -0 -0 0 0 0 0 0 0 0 0 0 3 2 5 2 4 2 2 1 2 2 2 2 1 0 1 1 2 2 2
0 0 0 0 0 0 0 0 0 0 0 0 0 0 0 0 0 -0 -0 -0 -0 -0 0 0 0 0 0 0 0 0 0 3 2 2 2 1 2 2 2 1 0 1 1 1 1 1 1 2 2
0 0 0 0 0 0 0 0 0 0 0 0 0 0 0 0 0 0 -0 0 -0 0 0 0 0 0 0 0 0 0 0 0 2 0 1 0 3 2 1 1 1 1 0 1 1 1 1 1 2
0 0 0 0 0 0 0 0 0 0 0 0 0 0 0 0 0 0 -0 -0 -0 0 0 0 0 0 0 0 0 0 0 0 0 1 0 0 1 1 2 1 1 1 1 1 2 1 1 1 1
Wind_Speed_500mb
3 1 3 4 13 11 19 5 4 1 12 20 21 11 16 19 25 9 36 44 20 18 39 55 55 50 46 46 47 51 53 48 40 33 36 40 45 49 48 48 49 47 40 34 30 28 28 28 30
5 5 3 7 14 20 13 10 10 18 17 24 18 22 16 20 31 17 46 49 20 24 39 60 57 52 47 46 47 52 56 50 44 38 38 42 46 49 50 49 50 46 39 33 29 28 27 27 27
10 8 12 8 16 24 15 14 14 16 17 23 20 21 10 16 24 31 48 41 15 21 38 53 58 55 50 48 48 53 58 53 47 42 41 42 47 49 51 50 49 45 39 33 29 27 26 25 25
5 7 8 14 22 10 13 11 20 18 11 17 28 11 8 14 22 40 50 37 17 17 34 51 58 56 54 50 49 59 60 56 50 45 42 43 47 49 50 50 45 42 39 34 30 27 26 24 22
6 9 12 15 13 5 3 16 13 13 16 25 26 17 24 13 25 46 49 37 21 16 31 45 60 57 55 51 50 59 62 57 53 47 44 44 48 49 50 49 44 41 39 33 30 28 25 24 22
12 9 13 17 9 4 8 19 12 16 23 25 27 34 23 3 35 52 45 34 20 17 30 37 60 58 57 52 50 60 61 58 54 50 46 45 47 50 49 48 44 41 38 33 29 28 26 24 22
18 13 16 8 15 14 6 17 14 22 26 19 35 33 21 16 47 49 40 31 23 15 28 35 57 62 59 55 53 59 60 59 56 52 49 46 47 49 50 47 45 41 37 34 30 28 27 25 23
9 10 13 10 14 10 7 15 14 26 27 27 22 15 29 52 54 47 38 31 20 16 27 37 43 64 64 61 58 59 60 60 58 55 51 49 49 50 51 49 46 42 37 35 32 29 28 26 23
4 12 15 9 12 11 17 23 20 28 32 33 35 37 52 56 50 46 37 29 26 18 27 37 41 49 58 55 64 62 62 62 61 59 56 52 51 52 53 51 49 43 39 37 33 30 28 26 23
9 10 8 9 9 18 28 31 36 23 30 34 37 41 47 49 45 46 42 34 29 27 27 39 46 50 51 52 54 68 66 66 66 65 63 58 47 53 50 53 51 45 42 40 36 32 28 25 16
2 8 4 6 9 20 32 31 29 30 24 30 39 49 48 48 45 44 43 39 37 33 34 33 50 54 54 55 50 55 51 52 56 57 60 55 47 46 48 46 57 51 47 43 39 34 28 20 20
8 2 7 9 16 22 23 33 29 20 31 27 34 38 49 46 49 46 47 46 41 39 35 40 45 62 60 58 56 53 54 53 53 54 60 54 49 46 48 45 44 47 41 36 31 27 25 27 23
1 3 10 16 23 20 25 24 29 41 22 33 37 38 38 47 48 47 46 48 48 43 37 40 49 66 74 66 58 57 57 55 52 53 57 55 52 49 47 44 42 41 39 38 32 28 27 24 21
7 15 19 15 15 25 25 32 28 28 36 41 41 43 41 42 45 50 48 48 46 46 42 36 51 66 75 78 67 62 60 57 54 52 54 62 55 53 49 48 44 42 40 37 33 30 25 24 20
11 19 13 9 11 26 22 27 17 21 36 46 50 48 48 47 46 50 51 50 49 48 46 44 43 67 79 82 76 68 64 62 59 54 56 62 64 61 54 47 47 43 43 39 36 32 30 25 24
8 11 13 5 21 6 11 25 23 35 43 46 49 52 52 53 50 50 55 55 51 52 53 51 41 58 79 86 84 74 68 65 62 60 58 69 69 66 64 48 50 46 46 42 37 33 28 25 23
13 17 26 19 13 14 14 33 30 47 46 43 40 46 52 52 52 47 47 53 56 58 59 58 55 50 75 86 82 88 76 70 66 63 60 71 72 68 63 53 49 54 45 41 39 35 32 28 25
22 27 20 25 14 31 29 32 33 38 35 29 29 36 46 50 46 46 44 48 54 54 54 59 56 57 66 84 89 87 83 75 68 66 65 69 75 73 68 55 50 53 44 41 40 37 33 31 26
18 20 25 28 24 26 28 36 32 28 18 16 25 34 38 44 48 44 42 45 49 50 49 51 54 62 66 84 92 97 93 84 74 69 68 68 78 79 74 63 58 56 47 48 48 41 37 31 30
13 24 27 22 10 33 30 42 23 5 6 16 22 29 37 46 49 50 46 46 47 51 48 49 53 58 61 84 93 99 97 88 75 70 74 79 85 84 80 74 59 61 50 58 56 52 39 36 37
15 23 24 35 39 41 17 21 17 14 8 12 19 27 35 44 55 54 52 49 51 51 50 53 54 54 56 76 86 96 91 89 89 79 74 78 85 88 85 79 77 66 59 52 62 59 51 41 40
22 13 26 33 29 17 17 10 14 15 13 6 22 32 41 48 54 57 52 51 50 51 48 54 56 56 55 72 84 89 92 94 100 87 74 73 73 73 85 85 82 77 67 61 61 60 50 47 43
19 28 32 31 26 21 12 13 5 27 13 7 21 31 42 53 55 58 55 50 49 47 51 54 57 51 48 64 83 89 88 84 74 82 86 85 80 74 77 84 84 81 74 65 58 59 59 52 43
20 28 27 12 14 14 11 11 18 3 7 10 17 28 41 58 64 58 55 49 49 45 46 55 55 54 29 55 79 88 91 89 79 75 84 77 75 77 73 72 87 85 80 74 68 62 59 54 51
17 21 7 8 14 12 10 19 23 3 9 6 18 32 49 62 63 62 59 56 50 52 48 57 55 58 34 50 67 79 87 80 87 73 68 66 71 74 79 81 83 82 81 76 70 65 55 62 52
9 12 5 10 10 26 34 16 6 7 9 7 21 38 58 60 58 61 57 54 52 51 47 52 55 58 39 25 60 68 80 80 75 80 64 63 59 69 86 82 85 78 68 72 73 60 57 51 56
11 7 9 10 26 14 14 15 22 15 16 11 30 47 58 55 62 65 59 51 56 52 49 50 49 51 50 37 36 61 68 85 82 83 84 77 56 49 66 68 71 67 75 70 73 66 59 52 54
13 7 7 8 10 13 14 29 14 14 14 22 33 57 56 60 64 62 59 56 56 52 50 47 45 47 49 38 26 40 58 58 76 68 86 76 65 59 58 66 59 60 67 70 70 63 60 57 52
13 14 7 7 12 9 15 7 5 13 11 27 37 54 57 60 61 59 60 58 60 56 51 47 46 44 41 46 33 26 47 60 68 96 99 49 70 61 55 55 53 59 58 65 62 61 57 57 57
20 19 13 7 5 15 16 25 5 12 11 24 35 47 53 55 56 60 63 60 59 59 55 50 44 41 40 38 43 30 36 52 60 64 141 109 55 53 48 48 49 53 57 60 63 61 56 54 59
Wind_Direction_500mb
280 314 125 247 243 235 253 151 322 239 56 4 339 349 332 313 3 28 351 348 306 212 192 188 189 189 194 194 190 189 186 180 175 169 166 173 173 171 169 168 168 167 165 160 154 152 149 143 137
168 136 231 244 250 236 235 87 235 51 353 341 337 344 6 77 22 12 349 343 315 210 196 193 193 192 199 199 198 194 190 185 180 175 169 176 176 174 172 171 172 174 172 168 162 159 155 150 147
137 153 248 247 245 251 290 54 35 344 346 354 349 333 8 358 8 358 347 348 333 203 199 196 199 195 200 201 200 198 193 190 185 180 174 178 179 177 175 173 174 178 178 174 169 165 161 158 155
164 192 223 248 243 84 352 5 344 331 22 350 345 315 32 35 24 347 348 345 330 220 205 211 204 201 200 200 200 198 196 192 189 184 181 181 182 181 180 177 177 179 180 178 175 172 169 169 165
187 233 236 238 255 20 344 8 340 353 351 331 332 330 309 282 340 346 345 340 326 224 206 221 205 205 204 203 201 199 198 195 193 190 188 186 186 186 184 184 183 183 183 184 181 176 178 181 174
208 268 237 238 202 136 89 354 4 354 336 329 336 320 303 232 338 346 342 337 326 234 211 216 206 204 208 207 202 200 201 200 198 196 194 193 191 191 189 190 188 188 188 191 188 182 184 190 188
272 244 271 290 275 260 95 353 2 331 324 333 325 315 284 306 328 336 339 335 329 250 225 218 206 206 208 209 207 205 205 206 205 203 201 198 197 196 194 195 194 193 194 196 194 191 193 200 202
270 269 255 229 263 293 92 326 331 324 312 310 319 300 310 315 319 326 327 321 321 281 234 220 208 207 207 209 210 210 210 209 210 210 208 206 203 201 199 198 198 198 199 201 201 199 202 208 214
234 247 258 290 278 331 321 316 311 314 291 300 300 292 301 309 312 313 316 320 304 283 247 224 221 209 205 206 210 210 213 214 213 213 213 212 208 204 204 201 201 200 202 205 206 207 210 217 224
276 266 30 25 318 307 310 314 313 315 307 304 312 307 309 310 311 309 306 306 309 292 261 235 220 215 207 204 206 209 211 212 213 214 215 211 203 206 204 205 204 203 205 208 210 214 218 222 233
43 336 30 301 334 311 308 309 328 310 304 333 316 316 317 314 311 308 302 297 298 304 275 245 229 215 211 209 207 202 204 205 208 210 212 201 202 204 198 205 204 206 206 210 213 216 219 223 218
231 3 318 327 318 310 313 313 306 314 312 312 313 314 313 313 314 309 304 300 296 301 290 255 235 219 213 212 210 203 200 201 201 203 209 197 199 202 200 203 202 202 207 204 211 214 211 220 223
153 343 288 298 300 308 310 303 314 303 305 312 313 309 304 307 309 309 305 301 298 294 297 265 252 231 219 209 214 206 202 203 202 202 205 199 202 203 202 204 203 206 205 208 210 209 220 226 228
330 296 284 283 285 317 308 310 295 294 312 309 310 307 304 301 300 305 305 303 303 295 294 285 258 246 236 220 211 210 204 203 201 203 204 202 204 208 202 203 201 207 206 208 209 214 220 220 221
299 282 275 224 253 312 333 292 313 334 310 308 306 305 304 298 294 293 297 298 299 302 301 290 266 250 237 235 215 213 211 203 201 203 204 207 209 215 203 207 205 207 210 205 207 211 215 216 223
274 273 302 193 328 284 305 298 325 314 311 304 306 307 305 303 299 291 290 290 292 295 299 298 277 255 241 232 228 216 215 208 205 203 205 216 216 215 215 211 210 210 213 211 211 213 214 215 216
174 307 310 314 248 298 274 300 291 302 304 306 307 311 315 313 308 302 296 290 288 293 295 294 283 256 246 238 238 219 216 212 209 205 206 216 217 216 218 213 215 215 213 209 209 209 207 212 208
306 307 307 298 298 304 295 284 302 301 304 310 327 333 326 325 326 316 305 301 298 296 296 295 287 257 250 240 229 221 211 214 213 210 208 215 216 219 220 216 214 217 208 208 206 205 209 206 206
295 286 292 292 323 304 296 294 301 303 297 346 332 335 330 325 325 322 316 314 311 305 305 298 288 264 243 243 230 215 210 213 214 214 209 210 216 220 221 216 218 217 207 205 210 207 205 201 197
277 291 299 304 272 316 299 297 290 83 25 350 348 348 341 333 329 326 321 320 318 315 313 306 295 275 246 238 232 222 226 217 216 217 214 214 223 221 223 219 217 219 210 214 217 212 202 199 197
294 297 311 308 316 285 300 266 144 152 243 324 344 346 347 344 338 329 321 319 320 322 317 312 302 287 246 235 231 224 225 225 218 214 216 216 220 222 222 221 221 223 218 216 219 216 203 201 203
297 360 305 302 314 314 343 286 258 145 287 286 334 341 339 334 331 330 322 317 319 320 322 318 311 295 249 232 227 222 211 208 213 215 216 216 212 215 220 221 221 225 222 217 222 219 208 196 204
298 318 299 293 282 294 198 249 211 211 234 301 330 338 338 337 332 329 327 318 320 318 325 322 321 313 265 229 227 224 214 214 216 212 215 215 223 214 215 220 221 223 222 220 219 217 211 203 204
298 291 283 272 258 251 226 272 294 295 304 277 328 335 338 334 330 328 327 321 319 322 326 327 328 318 267 237 227 226 221 218 212 217 217 217 214 216 210 211 219 220 221 222 221 221 218 203 202
301 326 322 271 210 266 149 269 264 89 192 303 328 328 332 332 326 327 329 327 325 328 328 331 326 328 291 227 228 228 225 224 217 217 218 213 207 213 214 213 214 216 220 220 221 221 215 213 210
328 327 2 290 297 304 302 253 73 76 166 288 323 328 327 327 325 325 327 327 327 330 333 320 325 328 310 275 217 232 223 224 226 226 218 214 210 211 215 215 217 217 217 219 224 221 219 217 214
120 251 13 288 257 268 236 236 219 160 229 275 320 321 329 324 324 322 325 326 327 326 327 324 325 326 326 309 235 222 224 222 225 228 227 222 213 210 211 214 215 222 224 220 227 221 224 214 218
266 49 216 204 286 293 280 295 286 202 269 329 319 330 328 321 321 321 322 326 326 324 324 321 320 321 322 317 303 231 225 224 231 234 227 214 211 198 207 209 205 214 223 224 225 223 216 213 217
181 205 224 282 268 282 305 302 63 325 330 323 317 328 324 325 321 320 323 323 327 322 321 318 316 318 321 323 313 274 230 224 229 233 215 229 206 199 196 205 207 210 212 217 213 212 206 212 213
250 255 238 229 218 249 283 280 26 156 293 315 330 319 326 326 324 325 322 323 326 324 320 318 315 313 314 321 327 312 256 218 223 233 220 236 202 197 191 194 200 203 209 212 213 214 210 214 214
Wind_Speed_850mb
3 1 3 4 13 11 19 5 4 1 12 20 21 11 16 19 25 9 36 44 20 18 39 55 55 50 46 46 47 51 53 48 40 33 36 40 45 49 48 48 49 47 40 34 30 28 28 28 30
5 5 3 7 14 20 13 10 10 18 17 24 18 22 16 20 31 17 46 49 20 24 39 60 57 52 47 46 47 52 56 50 44 38 38 42 46 49 50 49 50 46 39 33 29 28 27 27 27
10 8 12 8 16 24 15 14 14 16 17 23 20 21 10 16 24 31 48 41 15 21 38 53 58 55 50 48 48 53 58 53 47 42 41 42 47 49 51 50 49 45 39 33 29 27 26 25 25
5 7 8 14 22 10 13 11 20 18 11 17 28 11 8 14 22 40 50 37 17 17 34 51 58 56 54 50 49 59 60 56 50 45 42 43 47 49 50 50 45 42 39 34 30 27 26 24 22
6 9 12 15 13 5 3 16 13 13 16 25 26 17 24 13 25 46 49 37 21 16 31 45 60 57 55 51 50 59 62 57 53 47 44 44 48 49 50 49 44 41 39 33 30 28 25 24 22
12 9 13 17 9 4 8 19 12 16 23 25 27 34 23 3 35 52 45 34 20 17 30 37 60 58 57 52 50 60 61 58 54 50 46 45 47 50 49 48 44 41 38 33 29 28 26 24 22
18 13 16 8 15 14 6 17 14 22 26 19 35 33 21 16 47 49 40 31 23 15 28 35 57 62 59 55 53 59 60 59 56 52 49 46 47 49 50 47 45 41 37 34 30 28 27 25 23
9 10 13 10 14 10 7 15 14 26 27 27 22 15 29 52 54 47 38 31 20 16 27 37 43 64 64 61 58 59 60 60 58 55 51 49 49 50 51 49 46 42 37 35 32 29 28 26 23
4 12 15 9 12 11 17 23 20 28 32 33 35 37 52 56 50 46 37 29 26 18 27 37 41 49 58 55 64 62 62 62 61 59 56 52 51 52 53 51 49 43 39 37 33 30 28 26 23
9 10 8 9 9 18 28 31 36 23 30 34 37 41 47 49 45 46 42 34 29 27 27 39 46 50 51 52 54 68 66 66 66 65 63 58 47 53 50 53 51 45 42 40 36 32 28 25 16
2 8 4 6 9 20 32 31 29 30 24 30 39 49 48 48 45 44 43 39 37 33 34 33 50 54 54 55 50 55 51 52 56 57 60 55 47 46 48 46 57 51 47 43 39 34 28 20 20
8 2 7 9 16 22 23 33 29 20 31 27 34 38 49 46 49 46 47 46 41 39 35 40 45 62 60 58 56 53 54 53 53 54 60 54 49 46 48 45 44 47 41 36 31 27 25 27 23
1 3 10 16 23 20 25 24 29 41 22 33 37 38 38 47 48 47 46 48 48 43 37 40 49 66 74 66 58 57 57 55 52 53 57 55 52 49 47 44 42 41 39 38 32 28 27 24 21
7 15 19 15 15 25 25 32 28 28 36 41 41 43 41 42 45 50 48 48 46 46 42 36 51 66 75 78 67 62 60 57 54 52 54 62 55 53 49 48 44 42 40 37 33 30 25 24 20
11 19 13 9 11 26 22 27 17 21 36 46 50 48 48 47 46 50 51 50 49 48 46 44 43 67 79 82 76 68 64 62 59 54 56 62 64 61 54 47 47 43 43 39 36 32 30 25 24
8 11 13 5 21 6 11 25 23 35 43 46 49 52 52 53 50 50 55 55 51 52 53 51 41 58 79 86 84 74 68 65 62 60 58 69 69 66 64 48 50 46 46 42 37 33 28 25 23
13 17 26 19 13 14 14 33 30 47 46 43 40 46 52 52 52 47 47 53 56 58 59 58 55 50 75 86 82 88 76 70 66 63 60 71 72 68 63 53 49 54 45 41 39 35 32 28 25
22 27 20 25 14 31 29 32 33 38 35 29 29 36 46 50 46 46 44 48 54 54 54 59 56 57 66 84 89 87 83 75 68 66 65 69 75 73 68 55 50 53 44 41 40 37 33 31 26
18 20 25 28 24 26 28 36 32 28 18 16 25 34 38 44 48 44 42 45 49 50 49 51 54 62 66 84 92 97 93 84 74 69 68 68 78 79 74 63 58 56 47 48 48 41 37 31 30
13 24 27 22 10 33 30 42 23 5 6 16 22 29 37 46 49 50 46 46 47 51 48 49 53 58 61 84 93 99 97 88 75 70 74 79 85 84 80 74 59 61 50 58 56 52 39 36 37
15 23 24 35 39 41 17 21 17 14 8 12 19 27 35 44 55 54 52 49 51 51 50 53 54 54 56 76 86 96 91 89 89 79 74 78 85 88 85 79 77 66 59 52 62 59 51 41 40
22 13 26 33 29 17 17 10 14 15 13 6 22 32 41 48 54 57 52 51 50 51 48 54 56 56 55 72 84 89 92 94 100 87 74 73 73 73 85 85 82 77 67 61 61 60 50 47 43
19 28 32 31 26 21 12 13 5 27 13 7 21 31 42 53 55 58 55 50 49 47 51 54 57 51 48 64 83 89 88 84 74 82 86 85 80 74 77 84 84 81 74 65 58 59 59 52 43
20 28 27 12 14 14 11 11 18 3 7 10 17 28 41 58 64 58 55 49 49 45 46 55 55 54 29 55 79 88 91 89 79 75 84 77 75 77 73 72 87 85 80 74 68 62 59 54 51
17 21 7 8 14 12 10 19 23 3 9 6 18 32 49 62 63 62 59 56 50 52 48 57 55 58 34 50 67 79 87 80 87 73 68 66 71 74 79 81 83 82 81 76 70 65 55 62 52
9 12 5 10 10 26 34 16 6 7 9 7 21 38 58 60 58 61 57 54 52 51 47 52 55 58 39 25 60 68 80 80 75 80 64 63 59 69 86 82 85 78 68 72 73 60 57 51 56
11 7 9 10 26 14 14 15 22 15 16 11 30 47 58 55 62 65 59 51 56 52 49 50 49 51 50 37 36 61 68 85 82 83 84 77 56 49 66 68 71 67 75 70 73 66 59 52 54
13 7 7 8 10 13 14 29 14 14 14 22 33 57 56 60 64 62 59 56 56 52 50 47 45 47 49 38 26 40 58 58 76 68 86 76 65 59 58 66 59 60 67 70 70 63 60 57 52
13 14 7 7 12 9 15 7 5 13 11 27 37 54 57 60 61 59 60 58 60 56 51 47 46 44 41 46 33 26 47 60 68 96 99 49 70 61 55 55 53 59 58 65 62 61 57 57 57
20 19 13 7 5 15 16 25 5 12 11 24 35 47 53 55 56 60 63 60 59 59 55 50 44 41 40 38 43 30 36 52 60 64 141 109 55 53 48 48 49 53 57 60 63 61 56 54 59
Wind_Direction_850mb
280 314 125 247 243 235 253 151 322 239 56 4 339 349 332 313 3 28 351 348 306 212 192 188 189 189 194 194 190 189 186 180 175 169 166 173 173 171 169 168 168 167 165 160 154 152 149 143 137
168 136 231 244 250 236 235 87 235 51 353 341 337 344 6 77 22 12 349 343 315 210 196 193 193 192 199 199 198 194 190 185 180 175 169 176 176 174 172 171 172 174 172 168 162 159 155 150 147
137 153 248 247 245 251 290 54 35 344 346 354 349 333 8 358 8 358 347 348 333 203 199 196 199 195 200 201 200 198 193 190 185 180 174 178 179 177 175 173 174 178 178 174 169 165 161 158 155
164 192 223 248 243 84 352 5 344 331 22 350 345 315 32 35 24 347 348 345 330 220 205 211 204 201 200 200 200 198 196 192 189 184 181 181 182 181 180 177 177 179 180 178 175 172 169 169 165
187 233 236 238 255 20 344 8 340 353 351 331 332 330 309 282 340 346 345 340 326 224 206 221 205 205 204 203 201 199 198 195 193 190 188 186 186 186 184 184 183 183 183 184 181 176 178 181 174
208 268 237 238 202 136 89 354 4 354 336 329 336 320 303 232 338 346 342 337 326 234 211 216 206 204 208 207 202 200 201 200 198 196 194 193 191 191 189 190 188 188 188 191 188 182 184 190 188
272 244 271 290 275 260 95 353 2 331 324 333 325 315 284 306 328 336 339 335 329 250 225 218 206 206 208 209 207 205 205 206 205 203 201 198 197 196 194 195 194 193 194 196 194 191 193 200 202
270 269 255 229 263 293 92 326 331 324 312 310 319 300 310 315 319 326 327 321 321 281 234 220 208 207 207 209 210 210 210 209 210 210 208 206 203 201 199 198 198 198 199 201 201 199 202 208 214
234 247 258 290 278 331 321 316 311 314 291 300 300 292 301 309 312 313 316 320 304 283 247 224 221 209 205 206 210 210 213 214 213 213 213 212 208 204 204 201 201 200 202 205 206 207 210 217 224
276 266 30 25 318 307 310 314 313 315 307 304 312 307 309 310 311 309 306 306 309 292 261 235 220 215 207 204 206 209 211 212 213 214 215 211 203 206 204 205 204 203 205 208 210 214 218 222 233
43 336 30 301 334 311 308 309 328 310 304 333 316 316 317 314 311 308 302 297 298 304 275 245 229 215 211 209 207 202 204 205 208 210 212 201 202 204 198 205 204 206 206 210 213 216 219 223 218
231 3 318 327 318 310 313 313 306 314 312 312 313 314 313 313 314 309 304 300 296 301 290 255 235 219 213 212 210 203 200 201 201 203 209 197 199 202 200 203 202 202 207 204 211 214 211 220 223
153 343 288 298 300 308 310 303 314 303 305 312 313 309 304 307 309 309 305 301 298 294 297 265 252 231 219 209 214 206 202 203 202 202 205 199 202 203 202 204 203 206 205 208 210 209 220 226 228
330 296 284 283 285 317 308 310 295 294 312 309 310 307 304 301 300 305 305 303 303 295 294 285 258 246 236 220 211 210 204 203 201 203 204 202 204 208 202 203 201 207 206 208 209 214 220 220 221
299 282 275 224 253 312 333 292 313 334 310 308 306 305 304 298 294 293 297 298 299 302 301 290 266 250 237 235 215 213 211 203 201 203 204 207 209 215 203 207 205 207 210 205 207 211 215 216 223
274 273 302 193 328 284 305 298 325 314 311 304 306 307 305 303 299 291 290 290 292 295 299 298 277 255 241 232 228 216 215 208 205 203 205 216 216 215 215 211 210 210 213 211 211 213 214 215 216
174 307 310 314 248 298 274 300 291 302 304 306 307 311 315 313 308 302 296 290 288 293 295 294 283 256 246 238 238 219 216 212 209 205 206 216 217 216 218 213 215 215 213 209 209 209 207 212 208
306 307 307 298 298 304 295 284 302 301 304 310 327 333 326 325 326 316 305 301 298 296 296 295 287 257 250 240 229 221 211 214 213 210 208 215 216 219 220 216 214 217 208 208 206 205 209 206 206
295 286 292 292 323 304 296 294 301 303 297 346 332 335 330 325 325 322 316 314 311 305 305 298 288 264 243 243 230 215 210 213 214 214 209 210 216 220 221 216 218 217 207 205 210 207 205 201 197
277 291 299 304 272 316 299 297 290 83 25 350 348 348 341 333 329 326 321 320 318 315 313 306 295 275 246 238 232 222 226 217 216 217 214 214 223 221 223 219 217 219 210 214 217 212 202 199 197
294 297 311 308 316 285 300 266 144 152 243 324 344 346 347 344 338 329 321 319 320 322 317 312 302 287 246 235 231 224 225 225 218 214 216 216 220 222 222 221 221 223 218 216 219 216 203 201 203
297 360 305 302 314 314 343 286 258 145 287 286 334 341 339 334 331 330 322 317 319 320 322 318 311 295 249 232 227 222 211 208 213 215 216 216 212 215 220 221 221 225 222 217 222 219 208 196 204
298 318 299 293 282 294 198 249 211 211 234 301 330 338 338 337 332 329 327 318 320 318 325 322 321 313 265 229 227 224 214 214 216 212 215 215 223 214 215 220 221 223 222 220 219 217 211 203 204
298 291 283 272 258 251 226 272 294 295 304 277 328 335 338 334 330 328 327 321 319 322 326 327 328 318 267 237 227 226 221 218 212 217 217 217 214 216 210 211 219 220 221 222 221 221 218 203 202
301 326 322 271 210 266 149 269 264 89 192 303 328 328 332 332 326 327 329 327 325 328 328 331 326 328 291 227 228 228 225 224 217 217 218 213 207 213 214 213 214 216 220 220 221 221 215 213 210
328 327 2 290 297 304 302 253 73 76 166 288 323 328 327 327 325 325 327 327 327 330 333 320 325 328 310 275 217 232 223 224 226 226 218 214 210 211 215 215 217 217 217 219 224 221 219 217 214
120 251 13 288 257 268 236 236 219 160 229 275 320 321 329 324 324 322 325 326 327 326 327 324 325 326 326 309 235 222 224 222 225 228 227 222 213 210 211 214 215 222 224 220 227 221 224 214 218
266 49 216 204 286 293 280 295 286 202 269 329 319 330 328 321 321 321 322 326 326 324 324 321 320 321 322 317 303 231 225 224 231 234 227 214 211 198 207 209 205 214 223 224 225 223 216 213 217
181 205 224 282 268 282 305 302 63 325 330 323 317 328 324 325 321 320 323 323 327 322 321 318 316 318 321 323 313 274 230 224 229 233 215 229 206 199 196 205 207 210 212 217 213 212 206 212 213
250 255 238 229 218 249 283 280 26 156 293 315 330 319 326 326 324 325 322 323 326 324 320 318 315 313 314 321 327 312 256 218 223 233 220 236 202 197 191 194 200 203 209 212 213 214 210 214 214